OneWeb SL0244

operational
NORAD ID: 48776 Int'l Des: 2021-045 Owner: ONEWEBN Country: UK Constellation: oneweb
LEOCIRCULARPOLARONEWEB_TYPE

About OneWeb SL0244

Description loading...

Live Position

Loading 3D Globe...

Upcoming Passes

Altitude History

Altitude vs Time

uPlot chart will show altitude changes over time

Two-Line Element Set

1 48776U 21045K 25258.58352923 -.00000050 00000-0 -16647-3 0 9997
2 48776 87.9039 313.9523 0001794 91.7206 268.4130 13.15549007208865
Epoch: Sep 15, 2025 • Age: 12 hours

Current Status

Altitude 1221.9 km
Velocity 7.24 km/s
Sub-Earth Point -49.19°S, 109.23°E
Launch Date May 28, 2021
Age 4.3 years
Type internet

Technical Details

Classification Payload
Mass 148.00 kg
Dry Mass 140.00 kg
Total Mass 148.00 kg
Length 1.30 m
Diameter 1.00 m
Span 5.00 m
Shape Trapezoid+2 pan
Manufacturer ONEWUS
Bus Type ARROW
Phase Status In Orbit
Owner/State ONEWEBN/UK

Large Constellations

Loading constellations...